This demonstration page uses our WeatherBlox Daily Observations layout. Learn more.

Left ArrowRight Arrow

Hourly Observations for December 26, 2021

Temp ( °F °C ) Dew Point ( °F °C ) Humidity (%) Winds ( mph kmh ) Pressure ( in mb ) Visibility ( mi km ) Precip ( " mm )
12:59 am 00:59 Cloudy 65 18.3 56 13.3 73 73 W 9 15 29.74 1007 10 16 0.00 0.00
1:59 am 01:59 Cloudy 65 18.3 56 13.3 73 73 W 12 19 29.76 1008 10 16 0.00 0.00
2:59 am 02:59 Mostly Clear 63 17.2 56 13.3 78 78 W 8 13 29.79 1009 10 16 0.00 0.00
3:59 am 03:59 Mostly Clear 60 15.6 55 12.8 84 84 W 7 11 29.80 1009 10 16 0.00 0.00
4:59 am 04:59 Clear 54 12.2 53 11.7 97 97 W 6 9 29.82 1010 10 16 0.00 0.00
5:59 am 05:59 Clear 53 11.7 53 11.7 100 100 SW 5 7 29.86 1011 10 16 0.00 0.00
6:59 am 06:59 Mostly Clear 52 11.1 51 10.6 97 97 W 3 6 29.89 1012 10 16 0.00 0.00
7:59 am 07:59 Mostly Sunny 52 11.1 52 11.1 100 100 Calm 29.93 1013 10 16 0.00 0.00
8:59 am 08:59 Sunny 60 15.6 53 11.7 78 78 Calm 29.95 1014 10 16 0.00 0.00
9:59 am 09:59 Sunny 61 16.1 49 9.4 65 65 NNE 8 13 29.98 1015 10 16 0.00 0.00
10:59 am 10:59 Sunny 61 16.1 47 8.3 60 60 NNE 10 17 29.97 1015 10 16 0.00 0.00
11:59 am 11:59 Sunny 61 16.1 47 8.3 60 60 Calm 29.96 1015 10 16 0.00 0.00
12:59 pm 12:59 Mostly Sunny 61 16.1 45 7.2 56 56 NE 6 9 29.96 1014 10 16 0.00 0.00
1:59 pm 13:59 Mostly Sunny 60 15.6 44 6.7 56 56 NE 8 13 29.95 1014 10 16 0.00 0.00
2:59 pm 14:59 Mostly Sunny 60 15.6 43 6.1 53 53 NE 8 13 29.95 1014 10 16 0.00 0.00
3:59 pm 15:59 Partly Cloudy 58 14.4 44 6.7 60 60 ENE 5 7 29.96 1015 10 16 0.00 0.00
4:59 pm 16:59 Mostly Clear 54 12.2 43 6.1 67 67 ENE 3 6 29.97 1015 10 16 0.00 0.00
5:59 pm 17:59 Partly Cloudy 49 9.4 44 6.7 83 83 Calm 29.99 1016 10 16 0.00 0.00
6:59 pm 18:59 Clear 49 9.4 45 7.2 86 86 Calm 30.02 1017 10 16 0.00 0.00
7:59 pm 19:59 Clear 45 7.2 44 6.7 97 97 Calm 30.04 1017 10 16 0.00 0.00
8:59 pm 20:59 Clear 46 7.8 44 6.7 93 93 Calm 30.06 1018 9 14 0.00 0.00
9:59 pm 21:59 Mostly Clear 47 8.3 44 6.7 90 90 Calm 30.08 1019 9 14 0.00 0.00
10:59 pm 22:59 Mostly Clear 45 7.2 42 5.6 90 90 N 3 6 30.10 1019 10 16 0.00 0.00
11:59 pm 23:59 Partly Cloudy 44 6.7 42 5.6 93 93 NNE 3 6 30.12 1020 10 16 0.00 0.00

Powered by AerisWeather